星链-31744 (STARLINK-31744 )

导读

STARLINK-31744是美国太空探索技术公司星链互联网卫星星座的一员,于2024年4月13日发射入轨。星链项目旨在为全球提供覆盖偏远地区的高速卫星互联网服务,该卫星加入星座后,进一步扩充了星链低轨卫星网络的规模,提升了全球卫星互联网服务的覆盖范围与容量,助力星链持续完善全球互联的布局。

基本信息
目录编号:
59494
目录名称:
STARLINK-31744
国际标识:
2024-071L
轨道中心:
EARTH
卫星名称:
星链-31744
卫星全名:
星链-31744 (STARLINK-31744 )
卫星状态:
在轨 (已飞行874 天)
发射日期:
2024-04-13 UTC
国别 :
美国 (US)
星等 :
--
轨道信息
数据来源 国际轨道数据
星历时间: 2026-09-03T20:27:04+0800
1天前
查看轨道信息
半长轴: 6861.206km
偏心率: 0.0001183
轨道倾角: 43.000°
近地点辐角 281.236°
升交点赤经 63.119°
平近点角 78.836°
近地点: 482.257km
远地点: 483.881km
周期: 94.267分钟
每日圈数: 15.275734
详细信息
固有亮度:
5
最大亮度:
1.5
卫星平台:
Starlink v2.0 mini
覆盖范围:
全球
运营商:
太空探索技术公司
运营商所在国:
美国
制造商(研发单位):
太空探索技术公司
制造商所在国:
美国
使用方式:
暂无
卫星简介
星链(Starlink)计划是由太空探索技术公司(SpaceX)提出的一个巨型低轨卫星互联网星座项目,计划在2019年至2024年间在太空搭建由约1.2万颗卫星组成的“星链”网络,其中1584颗将部署在地球上空550千米处的近地轨道,并从2020年开始工作。该卫星仍在工作。
2D轨道图
3D轨道图
轨道高度分析图
轨道倾角分析图
轨道综合分析图
查看轨道综合分析图